Main page
METAR-TAF:

METAR-TAF

Airports :

Sari, Iran

Dasht-e Naz Airport

latitude: 36-38-09N, longitude: 53-11-37E, elevation: 11 m

Current weather observation

The report was made 47 minutes ago, at 09:00 UTC
Wind 12 kt from the East/Northeast
Temperature 23°C
Humidity 50%
Pressure 1011 hPa
Visibility 10 km or more
no clouds below 1500 m and no cumulonimbus

METAR: OINZ 220900Z 06012KT CAVOK 23/12 Q1011

Time: 13:17 (09:47 UTC)


TAF: missing

Weather observations and forecasts of more than 4000 airports (METAR and TAF reports).

The available stations are represented by yellow and red dots on the map.

Hover mouse over dot to see the name of the station.

Then click to see weather observations and forecasts.

To change the map : click on the green buttons with a black cross to zoom in, on the green button with a dash to zoom out, or on the green arrows for adjacent maps.


METAR-TAF: